Location: Unspecified
(0.0000°N, 0.0000°E)
Time: 19:33:19
(UTC+00:00)

N. Korean satellite - Pass Details

Date: 12 November 2017
Orbit: 460 x 515 km, 97.2° (Epoch: 18 November)

Event Time Altitude Azimuth Distance (km) Brightness Sun altitude
Rises 18:05:31 0° 157° (SSE) 2,493 10.1 -5.1°
Reaches altitude 10° 18:07:39 10° 149° (SSE) 1,610 9.1 -5.6°
Maximum altitude 18:10:53 38° 79° (E) 714 6.9 -6.3°
Drops below altitude 10° 18:14:05 10° 10° (N) 1,596 8.9 -7.1°
Sets 18:16:12 0° 2° (N) 2,467 9.9 -7.6°
